�������l�o���
Date,Time,MP-1(��Sv/h),MP-2(��Sv/h),MP-3(��Sv/h),MP-4(��Sv/h),MP-5(��Sv/h),MP-6(��Sv/h),MP-7(��Sv/h),MP-8(��Sv/h),����,����(m/s),���J
2016/12/05,00:00,1.094,1.841,1.219,2.075,1.435,0.577,1.042,0.966,�쐼,4.8,��
2016/12/05,00:10,1.093,1.842,1.217,2.076,1.433,0.577,1.044,0.966,��쐼,4.1,��
2016/12/05,00:20,1.093,1.841,1.218,2.075,1.433,0.577,1.044,0.967,��,4.2,��
2016/12/05,00:30,1.097,1.841,1.219,2.074,1.433,0.576,1.042,0.966,���쓌,1.2,��
2016/12/05,00:40,1.094,1.841,1.217,2.074,1.430,0.579,1.041,0.965,�쐼,0.8,��
2016/12/05,00:50,1.095,1.842,1.220,2.079,1.435,0.578,1.041,0.967,�쐼,1.7,�L
2016/12/05,01:00,1.097,1.842,1.219,2.076,1.434,0.579,1.042,0.967,��,2.0,�L
2016/12/05,01:10,1.097,1.839,1.219,2.077,1.434,0.577,1.043,0.967,���쐼,2.2,�L
2016/12/05,01:20,1.095,1.839,1.220,2.075,1.429,0.580,1.041,0.966,���쐼,2.8,�L
2016/12/05,01:30,1.093,1.835,1.219,2.073,1.429,0.580,1.040,0.964,��,2.9,�L
2016/12/05,01:40,1.092,1.834,1.216,2.073,1.429,0.578,1.040,0.966,��,2.6,�L
2016/12/05,01:50,1.091,1.832,1.216,2.071,1.429,0.579,1.039,0.964,���k��,3.1,�L
2016/12/05,02:00,1.092,1.831,1.218,2.074,1.426,0.578,1.039,0.966,��,3.1,��
2016/12/05,02:10,1.090,1.829,1.215,2.073,1.426,0.578,1.041,0.964,��,4.3,�L
2016/12/05,02:20,1.089,1.832,1.213,2.073,1.426,0.578,1.039,0.965,���k��,4.4,��
2016/12/05,02:30,1.089,1.830,1.214,2.071,1.425,0.576,1.038,0.964,���k��,3.7,�L
2016/12/05,02:40,1.088,1.824,1.214,2.068,1.423,0.577,1.037,0.965,���k��,3.0,��
2016/12/05,02:50,1.087,1.823,1.216,2.068,1.421,0.577,1.040,0.966,��,2.6,��
2016/12/05,03:00,1.086,1.822,1.213,2.068,1.422,0.577,1.039,0.963,��,2.3,��
2016/12/05,03:10,1.086,1.824,1.212,2.073,1.419,0.577,1.039,0.964,�쐼,2.0,��
2016/12/05,03:20,1.088,1.822,1.211,2.065,1.421,0.575,1.039,0.962,���쐼,3.4,��
2016/12/05,03:30,1.086,1.824,1.212,2.068,1.419,0.577,1.040,0.962,���쐼,2.3,��
2016/12/05,03:40,1.086,1.824,1.210,2.068,1.422,0.575,1.040,0.964,��,3.3,��
2016/12/05,03:50,1.085,1.821,1.208,2.067,1.424,0.576,1.041,0.962,��쐼,3.7,��
2016/12/05,04:00,1.086,1.824,1.211,2.069,1.421,0.575,1.039,0.962,��,4.5,��
2016/12/05,04:10,1.085,1.823,1.208,2.066,1.421,0.576,1.039,0.964,��,5.1,��
2016/12/05,04:20,1.085,1.825,1.213,2.067,1.423,0.576,1.040,0.961,��쐼,3.5,��
2016/12/05,04:30,1.086,1.825,1.208,2.066,1.423,0.577,1.039,0.963,�쐼,2.6,��
2016/12/05,04:40,1.086,1.823,1.209,2.067,1.422,0.574,1.039,0.963,���쐼,1.9,��
2016/12/05,04:50,1.085,1.821,1.209,2.064,1.419,0.575,1.040,0.963,�k�k��,1.9,��
2016/12/05,05:00,1.082,1.823,1.210,2.063,1.422,0.575,1.040,0.965,�k,3.1,��
2016/12/05,05:10,1.085,1.822,1.211,2.064,1.419,0.575,1.039,0.963,�k��,3.7,��
2016/12/05,05:20,1.086,1.821,1.210,2.066,1.421,0.572,1.041,0.963,�k��,4.9,��
2016/12/05,05:30,1.086,1.822,1.210,2.064,1.421,0.574,1.040,0.964,�k��,5.6,��
2016/12/05,05:40,1.084,1.820,1.210,2.064,1.422,0.573,1.040,0.964,�k��,7.4,��
2016/12/05,05:50,1.084,1.822,1.212,2.066,1.422,0.576,1.039,0.962,�k��,7.9,��
2016/12/05,06:00,1.082,1.822,1.208,2.069,1.421,0.573,1.041,0.962,�k��,5.2,��
2016/12/05,06:10,1.082,1.820,1.210,2.066,1.419,0.573,1.039,0.963,�k��,5.6,��
2016/12/05,06:20,1.082,1.822,1.213,2.066,1.419,0.575,1.039,0.962,�k��,4.9,��
2016/12/05,06:30,1.082,1.818,1.209,2.063,1.421,0.574,1.042,0.964,�k��,6.0,��
2016/12/05,06:40,1.082,1.818,1.209,2.065,1.420,0.575,1.040,0.962,�k��,4.0,��
2016/12/05,06:50,1.084,1.822,1.211,2.063,1.418,0.574,1.040,0.963,�k��,4.8,��
2016/12/05,07:00,1.082,1.820,1.209,2.066,1.421,0.574,1.041,0.964,���k��,5.3,��
2016/12/05,07:10,1.084,1.820,1.210,2.065,1.421,0.573,1.040,0.962,���k��,3.9,��
2016/12/05,07:20,1.083,1.818,1.211,2.069,1.422,0.575,1.040,0.964,���쐼,2.3,��
2016/12/05,07:30,1.084,1.821,1.209,2.068,1.421,0.573,1.040,0.965,���쐼,2.0,��
2016/12/05,07:40,1.085,1.819,1.210,2.069,1.418,0.575,1.039,0.962,��쐼,2.3,��
2016/12/05,07:50,1.082,1.821,1.209,2.068,1.418,0.574,1.041,0.964,���쐼,1.9,��
2016/12/05,08:00,1.086,1.822,1.210,2.069,1.422,0.575,1.040,0.963,���k��,2.5,��
2016/12/05,08:10,1.086,1.823,1.208,2.067,1.419,0.574,1.043,0.965,�k��,1.7,��
2016/12/05,08:20,1.087,1.821,1.209,2.066,1.424,0.575,1.042,0.963,�k��,1.9,��
2016/12/05,08:30,1.086,1.825,1.212,2.068,1.419,0.576,1.042,0.964,�k��,3.8,��
2016/12/05,08:40,1.085,1.827,1.213,2.067,1.422,0.575,1.040,0.963,�k��,2.6,��
2016/12/05,08:50,1.087,1.825,1.214,2.072,1.424,0.576,1.042,0.964,�k�k��,1.7,��
2016/12/05,09:00,1.087,1.825,1.214,2.071,1.424,0.576,1.043,0.967,���쐼,4.0,��
2016/12/05,09:10,1.089,1.824,1.212,2.070,1.425,0.576,1.042,0.965,��,7.7,��
2016/12/05,09:20,1.087,1.829,1.216,2.070,1.423,0.575,1.041,0.965,���k��,7.9,��
2016/12/05,09:30,1.088,1.831,1.213,2.072,1.426,0.575,1.041,0.965,��,8.3,��
2016/12/05,09:40,1.090,1.830,1.213,2.072,1.429,0.576,1.040,0.966,���k��,7.3,��
2016/12/05,09:50,1.088,1.831,1.213,2.076,1.425,0.576,1.041,0.964,��,5.1,��
2016/12/05,10:00,1.092,1.832,1.211,2.075,1.415,0.576,1.040,0.966,��,5.9,��
2016/12/05,10:10,1.088,1.827,1.217,2.078,1.399,0.577,1.041,0.966,��,6.9,��
2016/12/05,10:20,1.090,1.831,1.214,2.076,1.388,0.575,1.044,0.966,��,7.6,��
2016/12/05,10:30,1.091,1.832,1.213,2.077,1.404,0.573,1.041,0.966,��,7.4,��
2016/12/05,10:40,1.090,1.831,1.213,2.076,1.420,0.573,1.043,0.966,��,7.5,��
2016/12/05,10:50,1.090,1.830,1.212,2.077,1.427,0.576,1.043,0.967,��,6.9,��
2016/12/05,11:00,1.090,1.832,1.211,2.077,1.423,0.577,1.043,0.969,��,6.0,��
2016/12/05,11:10,1.088,1.830,1.210,2.081,1.409,0.575,1.042,0.967,��,6.7,��
2016/12/05,11:20,1.091,1.832,1.212,2.078,1.409,0.576,1.044,0.968,��,6.7,��
2016/12/05,11:30,1.095,1.835,1.216,2.077,1.386,0.575,1.043,0.967,��,6.6,��
2016/12/05,11:40,1.094,1.834,1.216,2.084,1.405,0.576,1.043,0.968,��,7.5,��
2016/12/05,11:50,1.092,1.835,1.216,2.079,1.409,0.577,1.045,0.965,��,6.8,��
2016/12/05,12:00,1.094,1.835,1.216,2.081,1.399,0.578,1.046,0.969,�k�k��,6.2,��
2016/12/05,12:10,1.092,1.834,1.216,2.082,1.405,0.578,1.041,0.965,�k�k��,4.7,��
2016/12/05,12:20,1.090,1.835,1.217,2.081,1.405,0.579,1.045,0.966,�k��,5.0,��
2016/12/05,12:30,1.091,1.839,1.219,2.084,1.413,0.577,1.044,0.963,���k��,4.5,��
2016/12/05,12:40,1.094,1.834,1.218,2.084,1.413,0.579,1.043,0.966,�k��,5.1,��
2016/12/05,12:50,1.092,1.838,1.219,2.084,1.425,0.579,1.043,0.965,�k��,4.8,��
2016/12/05,13:00,1.094,1.837,1.216,2.083,1.419,0.580,1.042,0.965,���k��,4.0,��
2016/12/05,13:10,1.099,1.830,1.219,2.078,1.401,0.578,1.041,0.965,���k��,3.3,��
2016/12/05,13:20,1.102,1.834,1.218,2.083,1.429,0.579,1.045,0.965,���k��,3.1,��
2016/12/05,13:30,1.102,1.835,1.221,2.084,1.432,0.578,1.043,0.965,���k��,3.1,��
2016/12/05,13:40,1.104,1.838,1.217,2.083,1.429,0.579,1.042,0.965,���k��,2.5,��
2016/12/05,13:50,1.107,1.837,1.220,2.085,1.433,0.580,1.044,0.964,���k��,3.6,��
2016/12/05,14:00,1.109,1.837,1.222,2.084,1.432,0.580,1.043,0.964,��,6.0,��
2016/12/05,14:10,1.111,1.838,1.225,2.084,1.432,0.580,1.042,0.964,�k��,2.6,��
2016/12/05,14:20,1.112,1.837,1.224,2.086,1.433,0.578,1.044,0.964,���k��,5.4,��
2016/12/05,14:30,1.113,1.836,1.226,2.086,1.433,0.579,1.043,0.964,��,7.9,��
2016/12/05,14:40,1.113,1.839,1.223,2.086,1.434,0.578,1.045,0.966,���k��,8.5,��
2016/12/05,14:50,1.113,1.842,1.222,2.084,1.436,0.578,1.044,0.966,���k��,5.5,��
2016/12/05,15:00,1.113,1.838,1.221,2.084,1.433,0.580,1.044,0.967,���k��,4.1,��
2016/12/05,15:10,1.112,1.842,1.219,2.085,1.432,0.578,1.044,0.968,��,2.5,��
2016/12/05,15:20,1.111,1.845,1.222,2.085,1.428,0.578,1.044,0.966,��,6.0,��
2016/12/05,15:30,1.110,1.842,1.222,2.072,1.431,0.577,1.041,0.967,��,6.9,��
2016/12/05,15:40,1.110,1.840,1.220,2.080,1.436,0.578,1.044,0.968,��,6.2,��
2016/12/05,15:50,1.108,1.841,1.220,2.084,1.431,0.579,1.042,0.969,��,3.2,��
2016/12/05,16:00,1.110,1.842,1.223,2.085,1.432,0.579,1.043,0.968,���k��,2.5,��
2016/12/05,16:10,1.109,1.844,1.220,2.082,1.430,0.579,1.046,0.968,���k��,1.5,��
2016/12/05,16:20,1.110,1.845,1.223,2.084,1.431,0.579,1.044,0.968,���k��,2.6,��
2016/12/05,16:30,1.111,1.846,1.223,2.082,1.431,0.579,1.044,0.969,���k��,1.1,��
2016/12/05,16:40,1.109,1.840,1.223,2.084,1.435,0.578,1.046,0.968,���k��,2.0,��
2016/12/05,16:50,1.113,1.846,1.224,2.083,1.436,0.579,1.044,0.969,�k��,2.8,��
2016/12/05,17:00,1.114,1.840,1.224,2.086,1.433,0.577,1.046,0.969,���k��,4.2,��
2016/12/05,17:10,1.110,1.844,1.220,2.087,1.436,0.579,1.044,0.967,��,2.3,��
2016/12/05,17:20,1.112,1.840,1.225,2.086,1.436,0.579,1.045,0.967,�k��,3.1,��
2016/12/05,17:30,1.112,1.839,1.222,2.084,1.434,0.578,1.044,0.969,�k��,3.2,��
2016/12/05,17:40,1.109,1.842,1.221,2.083,1.436,0.579,1.046,0.970,�k��,4.4,��
2016/12/05,17:50,1.114,1.841,1.222,2.084,1.435,0.580,1.044,0.969,�k��,1.7,��
2016/12/05,18:00,1.111,1.841,1.221,2.083,1.435,0.579,1.044,0.967,��,2.3,��
2016/12/05,18:10,1.109,1.842,1.222,2.083,1.432,0.578,1.044,0.966,��,1.2,��
2016/12/05,18:20,1.112,1.844,1.221,2.083,1.434,0.580,1.046,0.966,���쐼,1.2,��
2016/12/05,18:30,1.111,1.842,1.218,2.082,1.434,0.578,1.045,0.967,���쐼,1.5,��
2016/12/05,18:40,1.112,1.843,1.223,2.078,1.436,0.578,1.045,0.964,�쐼,2.0,��
2016/12/05,18:50,1.112,1.843,1.219,2.081,1.435,0.577,1.044,0.966,���쐼,2.0,��
2016/12/05,19:00,1.112,1.838,1.222,2.082,1.433,0.576,1.043,0.965,���쐼,2.3,��
2016/12/05,19:10,1.112,1.840,1.219,2.080,1.434,0.578,1.045,0.966,���쐼,2.3,��
2016/12/05,19:20,1.109,1.840,1.219,2.081,1.431,0.577,1.043,0.965,�쐼,2.6,��
2016/12/05,19:30,1.111,1.838,1.219,2.082,1.434,0.576,1.043,0.966,���쐼,2.5,��
2016/12/05,19:40,1.111,1.840,1.217,2.081,1.432,0.577,1.045,0.967,���쐼,2.8,��
2016/12/05,19:50,1.112,1.841,1.218,2.083,1.433,0.578,1.045,0.966,���쐼,3.5,��
2016/12/05,20:00,1.112,1.839,1.219,2.082,1.436,0.579,1.045,0.966,���쐼,3.6,��
2016/12/05,20:10,1.113,1.838,1.219,2.081,1.434,0.577,1.045,0.965,��,3.5,��
2016/12/05,20:20,1.116,1.840,1.219,2.081,1.433,0.578,1.044,0.966,��,4.8,��
2016/12/05,20:30,1.116,1.843,1.221,2.084,1.433,0.578,1.047,0.967,���k��,5.6,��
2016/12/05,20:40,1.119,1.843,1.223,2.085,1.434,0.576,1.045,0.967,�k��,5.5,��
2016/12/05,20:50,1.115,1.844,1.223,2.085,1.433,0.575,1.044,0.968,�k��,7.0,��
2016/12/05,21:00,1.114,1.838,1.221,2.086,1.434,0.576,1.045,0.965,���k��,5.1,��
2016/12/05,21:10,1.115,1.840,1.222,2.080,1.432,0.577,1.042,0.968,���k��,4.5,��
2016/12/05,21:20,1.116,1.842,1.222,2.082,1.432,0.577,1.043,0.966,���k��,4.6,��
2016/12/05,21:30,1.117,1.843,1.219,2.081,1.436,0.576,1.045,0.966,���k��,4.0,��
2016/12/05,21:40,1.117,1.840,1.218,2.082,1.434,0.576,1.044,0.966,���k��,3.5,��
2016/12/05,21:50,1.116,1.840,1.222,2.082,1.432,0.577,1.046,0.967,��,2.6,��
2016/12/05,22:00,1.118,1.844,1.220,2.081,1.435,0.576,1.045,0.964,��,3.7,��
2016/12/05,22:10,1.117,1.839,1.221,2.084,1.435,0.576,1.044,0.967,���k��,3.7,��
2016/12/05,22:20,1.114,1.841,1.222,2.085,1.435,0.576,1.045,0.965,���k��,5.2,��
2016/12/05,22:30,1.117,1.841,1.219,2.081,1.434,0.578,1.047,0.966,���쐼,4.6,��
2016/12/05,22:40,1.117,1.843,1.220,2.084,1.436,0.579,1.043,0.967,���쐼,5.0,��
2016/12/05,22:50,1.117,1.841,1.219,2.084,1.435,0.577,1.045,0.968,���쐼,4.5,��
2016/12/05,23:00,1.118,1.841,1.223,2.085,1.433,0.576,1.045,0.967,��,4.4,��
2016/12/05,23:10,1.116,1.843,1.221,2.084,1.436,0.577,1.047,0.967,��,5.0,��
2016/12/05,23:20,1.118,1.846,1.221,2.084,1.433,0.577,1.042,0.966,��,4.7,��
2016/12/05,23:30,1.116,1.845,1.220,2.082,1.433,0.577,1.043,0.968,���쐼,4.3,��
2016/12/05,23:40,1.115,1.842,1.221,2.085,1.435,0.576,1.046,0.967,���쐼,4.7,��
2016/12/05,23:50,1.117,1.845,1.220,2.084,1.434,0.578,1.045,0.968,���쐼,5.9,��
